Location: Wanzleben
(52.0609°N, 11.4408°E)
Time: 02:41:42
(UTC+00:00)

Envisat - Pass Details

Date: 04 December 2020
Orbit: 764 x 766 km, 98.1° (Epoch: 20 January)

Event Time Altitude Azimuth Distance (km) Brightness Sun altitude
Rises 05:04:30 0° 16° (NNE) 3,248 6.3 -17.4°
Reaches altitude 10° 05:06:51 10° 20° (NNE) 2,317 5.5 -17.1°
Maximum altitude 05:11:56 64° 102° (ESE) 851 3.5 -16.3°
Drops below altitude 10° 05:16:58 10° 184° (S) 2,298 5.6 -15.6°
Sets 05:19:17 0° 187° (S) 3,220 6.4 -15.2°
